EW3836 Weather Reports


Display with metric or nautical units.
time (UTC)temp
F
wind
direction
speed
MPH
gust
MPH
rain 1hr
in
rain 24hr
in
rain mn
in
humidity
%
barometer
mb
20260906190138 50 234 0.0 0.0 0.00 0.06 0.00 83 1012.7
20260906184553 50 288 0.0 0.0 0.00 0.06 0.00 84 1012.7
20260906183057 50 242 0.0 0.0 0.00 0.06 0.00 84 1012.8
20260906181544 50 241 0.0 0.0 0.00 0.06 0.00 83 1012.6
20260906180042 50 254 0.0 0.0 0.00 0.06 0.00 83 1012.7
20260906174542 50 237 0.0 0.0 0.00 0.06 0.00 84 1012.8
20260906173047 50 224 0.0 0.0 0.00 0.06 0.00 85 1012.7
20260906171545 49 244 0.0 0.0 0.00 0.06 0.00 86 1012.9
20260906170041 48 227 0.0 0.0 0.00 0.06 0.00 88 1012.9
20260906164540 47 236 0.0 0.0 0.00 0.06 0.00 90 1013.0
20260906163041 47 252 0.0 0.0 0.00 0.06 0.00 92 1013.1
20260906161539 46 191 0.0 0.0 0.00 0.06 0.00 93 1013.1
20260906160039 45 236 0.0 0.0 0.00 0.06 0.00 94 1013.3
20260906154538 45 253 0.0 0.0 0.00 0.06 0.00 94 1013.5
20260906153040 45 219 0.0 0.0 0.00 0.06 0.00 94 1013.4
20260906151536 45 243 0.0 0.0 0.00 0.06 0.00 93 1013.2
20260906150035 45 288 0.0 0.0 0.00 0.06 0.00 92 1012.9
20260906144532 45 227 0.0 0.0 0.00 0.06 0.00 91 1013.1
20260906143031 47 264 0.0 0.0 0.00 0.06 0.00 90 1012.4
20260906141525 48 232 0.0 0.0 0.00 0.06 0.00 88 1011.4
20260906140039 48 230 0.0 0.0 0.00 0.06 0.00 86 1011.7
20260906134518 50 241 0.0 0.0 0.00 0.12 0.00 83 1011.5
20260906133018 50 149 0.0 0.0 0.00 0.12 0.00 81 1011.2
20260906131517 50 149 0.0 0.0 0.00 0.12 0.00 81 1011.3
20260906130014 50 113 0.0 0.0 0.00 0.12 0.00 81 1011.3
20260906124513 50 113 0.0 0.0 0.00 0.27 0.00 81 1011.4
20260906123014 51 113 0.0 0.0 0.00 0.27 0.00 79 1011.7
20260906121510 51 113 0.0 0.0 0.00 0.27 0.00 79 1011.7
20260906120007 51 113 0.0 0.0 0.00 0.27 0.00 76 1011.9
20260906114506 52 113 0.0 0.0 0.00 0.27 0.00 74 1011.9
20260906113006 53 113 0.0 0.0 0.00 0.27 0.00 68 1012.0
20260906111504 53 113 0.0 0.0 0.00 0.27 0.00 66 1011.9
20260906110002 53 113 0.0 0.0 0.00 0.27 0.00 66 1012.1
20260906104504 53 113 0.0 0.0 0.00 0.27 0.00 66 1012.0
20260906103003 54 113 0.0 0.0 0.00 0.27 0.00 63 1012.1
20260906101600 54 113 0.0 0.0 0.00 0.27 0.00 65 1012.2
20260906100100 54 113 0.0 0.0 0.00 0.27 0.00 66 1012.1
20260906094608 54 113 0.0 0.0 0.00 0.27 0.00 67 1012.1
20260906093105 53 113 0.0 0.0 0.00 0.27 0.00 69 1012.1
20260906091555 54 113 0.0 0.0 0.00 0.27 0.00 69 1012.1
20260906090130 54 113 0.0 0.0 0.00 0.27 0.00 68 1012.2
20260906084555 55 113 0.0 0.0 0.00 0.27 0.00 66 1012.4
20260906083047 55 113 0.0 0.0 0.00 0.27 0.00 66 1012.5
20260906081546 54 113 0.0 0.0 0.00 0.27 0.00 67 1012.7
20260906080041 53 113 0.0 0.0 0.00 0.27 0.00 73 1012.7
20260906074547 52 163 0.0 0.0 0.00 0.27 0.00 80 1012.9
20260906073033 52 250 0.0 0.0 0.00 0.27 0.00 80 1013.1
20260906071529 51 250 0.0 0.0 0.00 0.27 0.00 85 1013.4
20260906070025 50 250 0.0 0.0 0.00 0.27 0.00 89 1013.3
20260906064525 51 250 0.0 0.0 0.01 0.27 0.27 89 1013.3
20260906063025 51 250 0.0 0.0 0.01 0.27 0.27 89 1013.3
20260906061524 51 91 0.0 0.0 0.03 0.27 0.27 89 1013.2
20260906060022 51 80 0.0 0.0 0.03 0.27 0.27 89 1013.2
20260906054522 51 93 0.0 0.0 0.03 0.26 0.26 89 1013.4
20260906053021 51 67 0.0 0.0 0.04 0.26 0.26 88 1013.5
20260906051523 51 247 0.0 0.0 0.02 0.24 0.24 87 1013.6
20260906050021 53 89 0.0 0.0 0.02 0.24 0.24 85 1014.1
20260906044520 54 89 0.0 0.0 0.00 0.22 0.22 81 1014.4
20260906043020 54 89 0.0 0.0 0.00 0.22 0.22 81 1014.2
20260906041533 53 89 0.0 0.0 0.00 0.22 0.22 83 1014.1
20260906040021 54 103 0.0 0.0 0.00 0.22 0.22 80 1014.0
20260906034518 56 171 0.0 0.0 0.00 0.22 0.22 74 1014.5
20260906033017 55 139 0.0 0.0 0.00 0.22 0.22 74 1014.7
20260906031520 55 166 0.0 0.0 0.00 0.22 0.22 73 1014.3
20260906030015 55 111 0.0 0.0 0.00 0.22 0.22 74 1013.7
20260906024514 55 111 0.0 0.0 0.00 0.22 0.22 75 1013.8
20260906023015 56 47 0.0 0.0 0.00 0.22 0.22 74 1014.0
20260906021515 58 47 0.0 0.0 0.00 0.22 0.22 70 1013.9
20260906020014 59 47 0.0 0.0 0.00 0.22 0.22 67 1014.1
20260906014533 61 57 0.0 0.0 0.00 0.22 0.22 65 1014.2
20260906013021 62 303 0.0 0.0 0.00 0.22 0.22 62 1014.0
20260906011512 63 30 0.0 0.0 0.00 0.22 0.22 61 1013.9
20260906010033 63 314 0.0 0.0 0.00 0.22 0.22 60 1013.9
20260906004510 65 36 0.0 0.0 0.00 0.22 0.22 56 1013.8
20260906003007 64 24 0.0 0.0 0.00 0.22 0.22 59 1013.7
20260906001504 62 73 0.0 0.0 0.00 0.22 0.22 60 1013.6
20260906000003 62 302 0.0 0.0 0.00 0.22 0.22 57 1013.7
20260905234608 62 105 0.0 0.0 0.00 0.22 0.22 58 1013.7
20260905233059 63 5 0.0 0.0 0.00 0.22 0.22 62 1013.6
20260905231556 61 355 0.0 0.0 0.00 0.22 0.22 63 1013.6
20260905230107 61 83 0.0 0.0 0.00 0.22 0.22 63 1013.7
20260905224552 60 261 0.0 0.0 0.00 0.22 0.22 66 1014.0
20260905223049 58 209 0.0 0.0 0.00 0.22 0.22 69 1014.3
20260905221553 56 107 0.0 0.0 0.01 0.22 0.22 76 1014.2
20260905220047 54 146 0.0 0.0 0.01 0.22 0.22 84 1014.5
20260905214546 54 98 0.0 0.0 0.01 0.22 0.22 87 1014.5
20260905213053 53 165 0.0 0.0 0.00 0.21 0.21 87 1014.8
20260905211547 53 144 0.0 0.0 0.00 0.21 0.21 84 1014.8
20260905210044 53 133 0.0 0.0 0.00 0.21 0.21 84 1014.2
20260905204543 52 100 0.0 0.0 0.00 0.21 0.21 85 1014.6
20260905203052 54 167 0.0 0.0 0.00 0.21 0.21 80 1015.3
20260905201555 55 300 0.0 0.0 0.00 0.21 0.21 78 1014.9
20260905200041 57 79 0.0 0.0 0.00 0.21 0.21 76 1014.8
20260905194539 57 50 0.0 0.0 0.00 0.21 0.21 73 1014.4
20260905193039 58 317 0.0 0.0 0.00 0.21 0.21 74 1014.4
20260905191535 57 51 0.0 0.0 0.00 0.21 0.21 76 1014.5